Location: Eschertshofen
(49.3064°N, 11.5756°E)
Time: 02:17:09
(UTC+00:00)

Cosmos 2263 Rocket - Pass Details

Date: 18 September 2020
Orbit: 822 x 850 km, 71.0° (Epoch: 30 October)

Event Time Altitude Azimuth Distance (km) Brightness Sun altitude
Rises 19:32:29 0° 241° (WSW) 3,352 5.7 -21.5°
Reaches altitude 10° 19:35:11 10° 251° (WSW) 2,425 5.1 -21.8°
Maximum altitude 19:40:04 31° 313° (NW) 1,426 4.0 -22.5°
Drops below altitude 10° 19:45:01 10° 15° (NNE) 2,450 4.8 -23.2°
Sets 19:47:46 0° 26° (NNE) 3,392 5.4 -23.6°
